Weather History for KCDR - October, 2011

Change the Weather History Date:

Monday, October 31, 2011

  Actual Average Record
Temperature  
Mean Temperature 49 °F 41 °F  
Max Temperature 73 °F 57 °F 81 °F (1990)
Min Temperature 24 °F 26 °F -7 °F (1991)
Degree Days  
Heating Degree Days 16 24  
Month to date heating degree days 464 543  
Since 1 July heating degree days 598 753  
Cooling Degree Days 0 0  
Month to date cooling degree days 20 2  
Year to date cooling degree days 902 712  
Moisture  
Dew Point 29 °F    
Average Humidity 50    
Maximum Humidity 81    
Minimum Humidity 19    
Precipitation  
Precipitation 0.00 in 0.03 in 0.32 in (1995)
Month to date precipitation 1.65 1.31  
Year to date precipitation 17.03 16.91  
Sea Level Pressure  
Sea Level Pressure 29.92 in    
Wind  
Wind Speed 8 mph (WSW)    
Max Wind Speed 28 mph    
Max Gust Speed 35 mph    
Visibility 10 miles    
Events      
T = Trace of Precipitation, MM = Missing Value Source: NWS Daily Summary

Daily Weather History Graph

Daily Weather History Graph

Search for Another Location

Airport or City:

Trip Planner

Search our weather history database for the weather conditions in past years. The results will help you decide how hot, cold, wet, or windy it might be!

Date:

Astronomy

Oct. 31, 2011 Rise Set
Actual Time 7:25 AM MDT 5:46 PM MDT
Civil Twilight 6:55 AM MDT 6:15 PM MDT
Nautical Twilight 6:22 AM MDT 6:49 PM MDT
Astronomical Twilight 5:49 AM MDT 7:21 PM MDT
Moon 12:36 PM MDT (10/31) 10:22 PM MDT (10/31)
Length of Visible Light 11h 20m
Length of Day
10h 21m
Waxing Crescent, 30% of the Moon is Illuminated
Oct 31
Waxing Crescent
Nov 2
First Quarter
Nov 10
Full
Nov 18
Last Quarter
Nov 24
New

Hourly Weather History & Observations

Time (MDT) Temp. Windchill Dew Point Humidity Pressure Visibility Wind Dir Wind Speed Gust Speed Precip Events Conditions
12:53 AM 28.0 °F 22.8 °F 21.0 °F 75% 30.08 in 10.0 mi WSW 4.6 mph - N/A   Clear
1:53 AM 25.0 °F - 19.9 °F 81% 30.06 in 10.0 mi Calm Calm - N/A   Clear
3:53 AM 27.0 °F 18.0 °F 21.9 °F 81% 30.01 in 10.0 mi SW 9.2 mph - N/A   Clear
4:53 AM 30.9 °F - 24.1 °F 76% 30.00 in 10.0 mi Calm Calm - N/A   Clear
5:53 AM 30.9 °F 27.5 °F 25.0 °F 79% 30.01 in 10.0 mi SSW 3.5 mph - N/A   Clear
6:53 AM 30.9 °F 25.2 °F 25.0 °F 79% 30.03 in 10.0 mi SW 5.8 mph - N/A   Clear
7:53 AM 34.0 °F 28.0 °F 26.1 °F 73% 30.02 in 10.0 mi WSW 6.9 mph - N/A   Clear
8:53 AM 42.1 °F 37.7 °F 30.0 °F 62% 30.01 in 10.0 mi WSW 6.9 mph - N/A   Clear
9:53 AM 54.0 °F - 33.1 °F 45% 29.97 in 10.0 mi WSW 6.9 mph - N/A   Clear
11:53 AM 64.9 °F - 28.9 °F 26% 29.91 in 10.0 mi WSW 8.1 mph - N/A   Clear
12:53 PM 69.1 °F - 28.0 °F 22% 29.86 in 10.0 mi West 13.8 mph 21.9 mph N/A   Clear
1:53 PM 70.0 °F - 28.9 °F 22% 29.83 in 10.0 mi West 17.3 mph 21.9 mph N/A   Clear
2:53 PM 72.0 °F - 28.9 °F 20% 29.81 in 10.0 mi West 15.0 mph 20.7 mph N/A   Clear
3:53 PM 73.0 °F - 28.9 °F 20% 29.79 in 10.0 mi West 15.0 mph 19.6 mph N/A   Clear
4:53 PM 70.0 °F - 28.9 °F 22% 29.79 in 10.0 mi WNW 10.4 mph - N/A   Clear
5:53 PM 61.0 °F - 30.0 °F 31% 29.82 in 10.0 mi WSW 3.5 mph - N/A   Clear
6:53 PM 50.0 °F - 30.9 °F 48% 29.85 in 10.0 mi SSE 5.8 mph - N/A   Clear
8:53 PM 44.1 °F 39.0 °F 30.0 °F 58% 29.85 in 10.0 mi WSW 9.2 mph - N/A   Partly Cloudy
9:53 PM 48.0 °F - 32.0 °F 54% 29.84 in 10.0 mi WSW 9.2 mph - N/A   Mostly Cloudy
10:43 PM 53.6 °F - 37.4 °F 54% 29.90 in 10.0 mi NE 21.9 mph 34.5 mph N/A   Mostly Cloudy
10:53 PM 51.1 °F - 37.0 °F 59% 29.90 in 10.0 mi NE 20.7 mph 34.5 mph N/A   Partly Cloudy
11:53 PM 46.9 °F - 33.1 °F 59% 29.94 in 10.0 mi NE 11.5 mph 25.3 mph N/A   Clear